SCP
0 0 0 0 0 0 0 0 0 0 0 0 0 0 0 0 0 0 0 0 0 -0 0 0 -0 -0 -1 -1 -1 -1 -0 -0 -0 -0 -0 0 0 0 0 0 0 -0 -0 -0 -0 -0 -0 -0 -0
0 0 0 0 0 0 0 0 0 0 0 0 0 0 0 0 0 0 0 0 0 0 -0 -0 -0 -0 -0 -0 -1 -0 -0 -0 -0 0 0 0 0 0 0 0 0 -0 -0 -0 -0 -0 -0 -0 0
0 0 0 0 0 0 0 0 0 0 0 0 0 0 0 0 0 0 0 0 0 0 0 0 0 0 -0 -0 -0 -0 -0 -0 -0 0 0 0 0 0 0 0 0 -0 -0 -0 -0 -0 -0 -0 0
0 0 0 0 0 0 0 0 0 0 0 0 0 0 0 0 0 0 0 0 1 0 0 0 1 0 0 -0 -0 -0 -0 -0 0 0 0 0 0 0 0 0 0 0 -0 -0 -0 -0 -0 -0 0
0 0 0 0 0 0 0 0 0 0 0 -0 0 0 0 0 0 0 0 0 1 0 1 1 1 1 0 0 0 -0 -0 0 0 0 0 0 0 0 0 0 0 0 0 -0 -0 -0 -0 0 0
0 0 0 0 0 0 0 0 -0 0 -0 -0 0 0 0 0 0 0 0 0 0 1 1 1 1 1 0 0 0 0 -0 -0 0 0 0 0 0 -0 0 0 0 -0 -0 -0 -0 0 0 0 0
0 0 0 0 0 0 -0 0 0 0 -0 -0 -0 0 0 0 0 0 0 0 0 1 2 1 1 1 1 1 0 0 0 -0 -0 0 0 -0 -0 -0 -0 -0 -0 -0 -0 -0 -0 0 0 0 0
0 0 0 0 0 0 0 0 0 0 0 -0 0 0 0 0 0 0 0 0 0 1 2 2 1 2 2 1 1 0 0 0 0 0 -0 -0 -0 -0 -0 -0 -0 -0 -0 -0 0 0 0 0 0
0 0 0 0 0 0 0 0 -0 0 0 0 -0 0 0 0 0 0 0 0 1 1 1 2 1 2 2 2 1 1 0 0 0 0 -0 -0 -0 -0 -0 -0 -0 -0 -0 0 0 0 0 0 0
0 0 0 0 0 0 0 0 -0 -0 0 0 0 0 0 0 0 1 1 1 1 1 1 2 2 2 2 2 2 2 1 1 1 0 0 0 -0 -0 -0 -0 -0 -0 -0 -0 0 0 0 0 0
0 0 0 0 0 0 0 0 0 -0 0 0 0 0 0 0 0 0 1 1 1 1 1 1 1 2 2 2 3 2 2 1 1 0 0 0 0 -0 -0 -0 -0 -0 -0 -0 0 0 0 0 0
0 0 0 0 0 0 0 0 0 0 0 0 0 0 0 0 0 0 0 1 2 1 1 1 2 1 2 3 3 3 2 2 1 1 0 0 0 0 -0 -0 -0 -0 -0 0 0 0 0 0 0
0 0 0 0 0 0 0 0 0 0 0 0 0 0 0 0 0 0 0 0 2 2 1 1 1 2 2 3 3 3 2 2 1 1 1 0 0 0 0 0 0 0 0 0 0 0 0 0 0
0 0 0 0 0 0 0 0 0 0 0 0 0 0 0 -0 0 0 0 1 2 1 1 1 1 1 1 2 2 2 3 2 1 1 1 0 0 0 0 0 0 0 0 0 0 0 0 0 0
0 0 0 0 0 0 0 0 0 -0 -0 0 0 0 0 -0 0 0 0 0 1 1 1 1 0 1 1 2 2 2 2 2 2 1 1 1 0 0 0 0 0 0 0 0 0 0 0 0 0
0 0 0 0 0 0 0 0 -0 -0 -0 -0 0 0 0 0 0 0 0 0 0 0 1 1 1 0 0 1 2 1 1 2 1 1 1 1 1 0 0 0 0 0 0 0 0 0 0 0 0
0 0 0 0 0 0 0 0 0 0 0 -0 -0 -0 0 0 0 0 0 0 0 0 0 1 1 1 0 1 2 2 1 1 1 1 1 1 1 1 0 0 0 0 0 0 0 0 0 0 0
0 0 0 0 0 0 0 0 0 0 0 0 0 0 0 0 0 0 0 0 0 0 0 1 2 1 1 3 3 3 2 1 1 0 1 1 1 1 1 1 0 0 1 0 0 0 0 0 0
0 0 0 0 0 0 0 0 0 0 0 0 0 0 0 0 0 0 0 0 0 0 0 0 2 2 4 4 4 3 3 3 2 1 1 1 1 2 1 2 2 1 1 1 1 1 0 0 0
0 0 0 0 0 0 0 0 0 0 0 0 0 0 0 0 0 0 0 0 0 0 0 0 0 1 3 5 4 4 3 3 2 2 1 2 2 2 3 3 2 1 1 1 1 1 0 0 0
0 0 0 0 0 0 0 0 0 0 0 0 0 0 0 0 0 0 0 0 0 0 0 0 0 0 0 4 5 4 3 4 2 2 2 2 2 3 4 3 4 3 2 1 1 1 1 1 0
0 0 0 0 0 0 0 0 0 0 0 0 0 0 0 0 0 0 0 0 0 0 0 0 0 0 0 1 4 5 5 5 3 2 2 2 2 2 3 4 5 2 3 2 1 1 1 0 1
0 0 0 0 0 0 0 0 0 0 0 0 0 0 0 0 0 0 0 0 0 0 0 0 0 0 0 0 0 1 2 1 1 1 2 2 1 1 2 2 1 4 5 4 2 1 0 0 1
0 0 0 0 0 0 0 0 -0 0 0 0 0 0 0 0 -0 0 0 0 0 0 0 0 0 0 0 0 0 0 0 0 0 0 0 1 1 1 2 1 1 3 4 4 5 4 0 0 0
0 0 0 0 0 0 0 0 0 0 0 0 0 0 0 0 0 -0 0 0 0 0 0 0 0 0 0 0 0 0 0 0 0 0 0 0 0 0 0 1 1 1 2 2 2 3 3 2 2
0 0 0 0 0 0 0 0 0 0 0 0 -0 0 0 0 0 0 0 0 0 0 0 0 0 0 0 0 0 0 0 0 0 0 0 0 0 0 0 0 1 1 1 1 2 2 1 1 1
0 0 0 0 0 0 0 0 0 0 0 0 0 0 0 0 -0 -0 0 0 0 0 0 0 0 0 0 0 0 0 0 0 0 0 0 0 0 0 0 0 0 0 1 1 1 1 1 1 1
0 0 0 0 0 0 0 0 0 0 0 0 0 0 0 0 0 0 0 0 0 0 0 0 0 0 0 0 0 0 0 0 0 0 0 0 0 0 0 1 1 0 0 0 0 1 1 1 1
0 0 0 0 0 0 0 0 0 0 -0 0 0 0 0 0 0 0 0 0 0 0 0 0 0 0 0 0 0 0 0 0 0 0 0 0 0 0 1 1 1 1 1 1 1 0 0 1 1
0 0 0 0 0 0 0 0 0 -0 -0 0 -0 0 0 0 0 0 0 0 0 0 -0 0 0 0 0 0 0 0 0 0 0 0 0 0 0 0 0 0 0 0 0 0 0 1 1 0 0
Wind_Speed_500mb
19 22 23 6 6 8 5 7 6 13 16 14 11 9 23 13 3 6 22 49 38 56 61 63 62 61 58 54 50 51 50 50 49 45 43 40 36 36 35 34 34 32 30 29 26 24 23 22 20
18 22 12 2 7 0 7 9 10 2 16 12 14 16 18 6 15 7 20 37 40 56 62 63 64 61 56 54 52 53 53 51 51 49 47 44 42 40 38 35 33 31 29 27 25 23 22 21 18
18 20 7 6 6 11 9 7 12 15 27 37 4 17 10 5 15 8 24 28 47 58 60 61 62 61 57 52 52 55 55 55 57 57 54 50 45 41 38 35 32 29 27 23 21 18 17 16 14
10 4 4 5 16 10 7 3 14 21 1 29 16 8 7 6 9 12 23 31 40 52 56 59 61 60 57 53 53 55 57 60 61 61 58 51 46 42 37 33 30 26 24 21 18 14 13 12 9
7 1 2 4 14 7 1 16 23 20 4 15 16 1 4 9 13 7 16 30 41 53 55 59 62 62 61 58 58 58 58 58 58 58 55 51 46 41 37 32 27 23 21 19 16 12 9 8 7
4 3 4 10 14 13 0 13 16 19 20 9 11 13 7 11 9 3 10 22 35 38 55 61 62 63 64 64 63 61 60 58 57 55 51 47 45 40 35 31 26 21 18 15 12 9 6 4 6
11 8 9 6 10 16 5 16 12 21 33 8 15 13 10 17 14 18 17 28 37 43 51 62 66 65 66 67 65 63 61 59 57 55 51 47 43 39 35 30 25 21 15 11 7 4 1 3 5
10 7 6 8 11 21 6 16 22 13 39 48 8 9 8 29 24 32 20 30 41 51 53 60 67 69 69 69 68 65 61 59 57 55 52 48 44 40 35 29 24 19 13 8 4 3 3 4 7
8 6 8 12 11 18 38 8 20 31 30 50 37 34 31 38 36 47 34 41 48 54 60 63 67 72 73 73 70 67 63 62 59 55 52 49 45 40 36 30 24 18 13 9 7 8 10 9 10
11 9 17 11 12 14 27 17 30 27 41 51 63 32 25 51 43 47 41 40 45 60 65 69 71 75 77 76 75 72 68 66 64 60 55 49 45 40 35 30 26 22 17 14 12 14 16 13 11
9 10 10 13 26 32 32 36 39 17 31 45 47 55 22 16 41 41 36 36 35 38 60 74 77 75 80 82 81 78 76 72 68 64 58 53 48 44 39 35 31 26 21 17 17 16 14 12 7
6 17 16 24 44 41 17 52 43 35 53 64 61 57 22 26 23 34 40 39 43 46 50 67 77 77 80 83 84 83 82 79 73 68 62 58 54 49 44 39 33 29 25 21 18 10 5 2 4
7 9 31 43 51 55 55 41 42 69 57 65 69 60 51 26 40 26 22 26 34 36 51 66 69 71 72 77 80 82 83 79 76 70 65 62 59 54 48 44 39 35 29 26 22 14 10 7 9
7 15 19 15 25 23 15 32 28 42 36 46 54 63 53 26 34 41 33 31 29 29 34 54 61 66 69 71 76 83 84 79 75 72 69 66 61 58 55 50 46 42 35 27 25 21 20 19 20
10 8 13 6 6 7 10 18 23 44 28 23 33 43 49 45 33 53 54 53 46 43 40 45 50 57 61 59 66 75 79 81 80 76 72 68 64 62 59 55 53 47 40 36 36 30 27 25 26
10 8 7 9 10 17 7 22 26 52 37 34 44 54 56 62 53 52 58 61 52 47 51 51 52 47 58 57 57 63 74 77 77 78 76 72 67 63 61 58 56 52 47 43 43 39 34 34 35
9 6 7 12 9 8 12 17 16 45 39 49 45 42 54 66 69 64 62 64 61 60 54 58 55 54 57 59 57 60 65 66 70 69 71 70 73 70 64 61 59 52 52 49 48 45 44 40 39
8 7 8 6 14 10 20 29 19 31 25 43 58 59 59 65 73 66 68 63 74 69 58 61 61 57 62 69 66 66 65 65 65 43 62 61 62 63 64 64 57 50 50 49 47 45 44 46 45
10 8 18 24 28 8 24 34 21 26 24 32 56 62 71 63 72 69 62 69 75 78 67 68 65 62 64 74 72 68 67 65 64 58 48 62 60 59 59 55 43 45 46 44 38 39 44 47 50
14 19 23 16 24 9 22 32 20 12 14 35 45 61 66 68 60 65 68 63 70 74 78 75 71 66 66 72 74 73 73 64 66 63 62 65 73 64 59 58 51 56 44 47 41 43 43 43 43
15 10 8 10 11 9 10 32 23 20 13 26 37 46 52 53 41 43 61 61 66 74 87 81 75 69 70 71 73 78 74 72 71 69 67 65 65 74 71 54 51 58 59 56 42 42 42 44 46
11 14 11 11 5 6 3 30 25 19 21 12 34 43 39 46 39 41 54 58 65 71 85 86 76 68 67 67 70 78 79 77 73 63 52 75 70 66 61 63 75 66 50 47 55 43 38 43 46
16 11 12 8 8 3 10 8 32 6 21 21 16 50 56 50 51 40 43 61 64 71 81 82 73 64 55 54 54 50 48 55 58 61 57 44 58 63 71 72 78 108 89 101 104 59 51 40 37
3 2 5 4 2 11 13 20 47 20 23 20 14 41 60 64 50 52 53 49 74 84 86 78 70 59 54 52 50 49 49 45 45 50 60 60 54 52 58 59 60 60 73 70 92 102 86 85 82
6 9 10 11 4 23 8 11 18 29 33 27 30 46 55 47 49 57 59 60 65 91 83 76 70 65 52 43 40 41 45 51 52 50 48 49 53 51 61 63 64 71 70 76 79 101 100 108 112
3 11 9 16 15 29 8 13 16 13 32 51 50 56 43 39 52 58 63 67 68 92 87 78 61 49 43 37 35 42 47 47 51 51 49 48 47 37 37 45 51 64 78 83 81 76 79 88 89
5 7 5 4 3 7 9 14 15 18 13 34 31 29 22 36 40 45 44 65 72 94 77 59 48 40 33 28 19 19 26 30 30 28 31 37 43 46 45 42 42 41 45 44 52 61 70 61 64
8 8 2 4 8 11 10 12 18 15 21 30 30 33 40 43 26 11 19 47 75 68 58 55 52 42 27 24 22 22 25 25 20 16 16 19 20 23 28 27 28 29 30 33 40 43 44 48 47
2 1 4 6 6 7 6 10 10 14 5 24 24 44 29 33 25 25 19 3 43 58 60 58 54 44 37 37 29 25 29 27 22 20 18 16 16 19 20 21 22 23 24 25 31 39 46 48 53
7 12 10 7 7 9 8 16 24 15 10 17 42 47 49 16 12 8 5 33 23 33 61 61 56 58 45 34 35 36 28 31 32 25 26 23 22 23 24 27 30 32 36 38 38 39 44 48 52
Wind_Direction_500mb
320 333 328 320 48 60 289 254 269 342 358 6 45 108 121 78 310 249 144 171 169 169 170 170 169 170 171 172 171 169 169 168 169 169 168 167 163 157 147 141 135 127 121 117 114 112 109 107 107
313 329 328 55 102 81 262 265 320 242 302 295 6 12 54 41 36 42 144 165 176 173 170 171 172 172 172 172 170 168 169 169 168 169 168 165 160 154 147 141 134 129 125 122 118 112 107 106 109
305 321 317 103 142 200 201 220 288 327 30 22 72 30 20 31 40 89 142 175 172 176 173 170 172 173 172 173 170 167 167 166 165 165 163 161 158 153 148 143 136 133 129 123 113 110 106 102 102
301 313 74 100 231 252 229 333 317 326 54 45 18 31 30 352 324 149 143 154 164 178 175 173 175 175 173 173 169 165 163 161 160 160 160 160 156 154 150 146 142 139 135 128 123 116 109 101 97
294 317 57 267 267 217 248 322 334 319 45 96 91 265 97 107 103 107 177 165 173 178 179 178 178 177 175 174 170 167 165 163 162 162 162 160 159 157 154 151 149 148 146 140 134 128 114 98 71
196 91 100 229 250 276 338 328 345 304 321 148 129 156 173 166 177 161 173 179 180 183 183 181 181 180 177 176 173 171 170 168 167 167 166 164 162 161 160 158 158 161 159 153 146 132 112 76 44
136 103 212 248 279 291 108 348 347 319 308 85 217 157 167 166 191 198 183 192 189 192 190 187 183 184 183 180 177 177 176 175 173 172 170 169 169 168 168 167 169 171 170 163 156 131 78 15 3
180 115 194 231 247 271 278 326 315 360 309 319 322 190 225 192 174 155 170 196 198 196 197 193 189 187 188 185 182 181 182 182 181 179 177 177 177 176 176 177 181 184 185 184 194 232 274 319 329
163 91 216 213 214 263 295 319 306 314 298 311 317 248 219 176 172 173 176 191 197 201 200 200 195 193 193 191 187 186 188 189 189 188 186 184 185 184 184 186 190 200 204 211 237 271 288 306 320
165 164 215 200 222 257 286 289 308 307 304 301 307 334 222 181 178 182 190 184 195 198 204 203 201 198 197 197 193 191 192 195 195 195 194 192 193 193 194 196 201 208 217 230 250 267 281 297 319
200 209 208 226 241 259 272 287 284 283 286 283 292 311 293 198 175 186 198 205 205 210 205 204 204 202 201 201 200 197 197 199 200 199 200 199 200 202 203 206 211 217 225 238 258 273 285 297 323
235 245 249 275 271 267 264 271 272 260 265 281 288 292 281 279 214 176 178 185 192 204 201 207 206 206 206 206 206 205 204 203 204 204 203 205 207 208 210 216 221 228 237 246 252 261 282 359 48
219 261 270 269 271 267 267 265 263 267 269 280 283 278 279 267 222 202 186 182 183 198 203 204 205 210 211 213 213 213 213 212 211 209 210 212 212 214 217 221 225 233 242 251 246 254 268 268 276
223 265 273 281 279 266 242 262 253 273 285 273 270 270 268 266 234 240 217 201 190 189 196 208 208 210 214 217 220 220 220 220 219 218 218 218 220 221 222 226 231 235 240 249 248 252 260 263 273
275 300 328 286 270 267 269 273 256 280 287 259 261 257 269 270 272 232 233 229 220 215 220 202 207 214 217 222 226 227 228 223 223 225 226 227 228 228 230 230 234 238 243 248 253 256 258 266 273
359 53 342 286 329 281 202 275 295 297 292 254 251 257 262 268 265 260 239 237 227 227 218 215 208 210 213 218 221 228 227 227 228 228 230 231 235 238 238 241 242 243 246 248 254 260 265 271 277
350 245 247 308 228 244 202 273 266 298 310 302 298 271 263 264 263 262 258 240 229 228 223 218 217 216 211 212 216 220 224 225 230 226 229 230 233 237 238 240 247 251 253 253 255 260 268 277 280
267 293 280 246 285 201 273 270 257 280 292 290 298 300 291 268 261 261 243 246 230 224 229 227 219 219 220 214 214 218 223 226 227 234 250 235 230 225 229 236 236 241 247 249 252 258 269 277 279
246 252 260 276 276 259 265 264 268 265 276 275 289 295 301 284 268 259 244 240 231 217 222 221 224 220 217 217 214 217 220 223 225 229 221 257 235 224 220 221 228 238 240 249 254 262 265 269 274
241 257 276 289 279 242 262 267 271 234 229 269 284 293 294 289 270 257 241 236 237 238 226 219 222 223 218 220 217 219 220 224 235 241 238 236 230 232 226 221 235 233 243 249 255 266 268 273 281
254 232 239 241 290 306 299 286 300 290 239 268 282 285 283 271 257 238 225 222 228 232 224 221 220 213 213 217 218 222 223 227 231 239 243 238 237 239 239 229 223 246 247 253 258 261 266 280 286
248 195 206 245 47 252 145 290 276 279 277 232 269 282 298 288 283 257 227 224 226 229 221 221 215 208 208 215 220 225 231 232 235 236 245 241 241 237 234 242 245 242 253 254 267 273 270 274 280
236 186 224 216 229 205 199 268 272 283 286 274 260 280 284 278 282 281 265 244 234 222 214 216 215 213 216 221 223 229 233 236 236 237 237 239 240 245 244 252 238 242 242 243 242 267 273 267 269
76 246 275 327 163 256 242 222 276 260 256 271 229 258 279 282 292 288 277 255 239 225 212 208 205 201 203 210 220 229 235 243 246 244 238 233 236 238 232 236 242 242 236 230 232 234 263 278 276
91 56 320 305 291 269 349 300 270 278 273 265 270 268 281 280 290 283 268 255 239 220 203 199 200 201 203 212 222 233 240 243 246 246 248 243 240 236 234 240 244 244 242 248 247 243 247 250 264
83 151 177 260 268 282 2 255 264 298 299 283 281 286 284 284 291 285 261 249 237 206 198 199 194 194 205 216 229 241 249 249 247 246 243 241 238 243 245 245 246 246 251 250 252 257 255 260 263
165 194 218 270 17 298 228 279 296 270 340 360 347 359 356 349 310 298 259 238 216 191 187 191 191 187 193 208 218 247 257 255 248 246 242 241 240 240 246 250 252 255 256 257 252 254 257 263 270
148 159 42 357 289 268 278 270 260 315 343 334 323 328 359 4 4 344 186 190 186 181 185 183 185 187 197 210 214 232 239 236 221 220 230 229 231 230 235 241 244 247 250 249 249 242 250 256 263
33 287 87 155 178 270 301 261 236 244 315 307 301 324 318 18 39 65 58 267 200 200 196 191 192 196 205 210 211 216 232 226 236 237 228 225 224 221 223 234 247 256 259 260 255 254 258 266 269
165 197 156 128 266 243 255 264 266 296 322 327 305 300 293 280 356 94 265 352 352 252 214 212 205 208 212 221 218 214 222 217 228 231 236 239 243 241 244 258 269 276 279 280 280 273 269 272 274
Wind_Speed_850mb
19 22 23 6 6 8 5 7 6 13 16 14 11 9 23 13 3 6 22 49 38 56 61 63 62 61 58 54 50 51 50 50 49 45 43 40 36 36 35 34 34 32 30 29 26 24 23 22 20
18 22 12 2 7 0 7 9 10 2 16 12 14 16 18 6 15 7 20 37 40 56 62 63 64 61 56 54 52 53 53 51 51 49 47 44 42 40 38 35 33 31 29 27 25 23 22 21 18
18 20 7 6 6 11 9 7 12 15 27 37 4 17 10 5 15 8 24 28 47 58 60 61 62 61 57 52 52 55 55 55 57 57 54 50 45 41 38 35 32 29 27 23 21 18 17 16 14
10 4 4 5 16 10 7 3 14 21 1 29 16 8 7 6 9 12 23 31 40 52 56 59 61 60 57 53 53 55 57 60 61 61 58 51 46 42 37 33 30 26 24 21 18 14 13 12 9
7 1 2 4 14 7 1 16 23 20 4 15 16 1 4 9 13 7 16 30 41 53 55 59 62 62 61 58 58 58 58 58 58 58 55 51 46 41 37 32 27 23 21 19 16 12 9 8 7
4 3 4 10 14 13 0 13 16 19 20 9 11 13 7 11 9 3 10 22 35 38 55 61 62 63 64 64 63 61 60 58 57 55 51 47 45 40 35 31 26 21 18 15 12 9 6 4 6
11 8 9 6 10 16 5 16 12 21 33 8 15 13 10 17 14 18 17 28 37 43 51 62 66 65 66 67 65 63 61 59 57 55 51 47 43 39 35 30 25 21 15 11 7 4 1 3 5
10 7 6 8 11 21 6 16 22 13 39 48 8 9 8 29 24 32 20 30 41 51 53 60 67 69 69 69 68 65 61 59 57 55 52 48 44 40 35 29 24 19 13 8 4 3 3 4 7
8 6 8 12 11 18 38 8 20 31 30 50 37 34 31 38 36 47 34 41 48 54 60 63 67 72 73 73 70 67 63 62 59 55 52 49 45 40 36 30 24 18 13 9 7 8 10 9 10
11 9 17 11 12 14 27 17 30 27 41 51 63 32 25 51 43 47 41 40 45 60 65 69 71 75 77 76 75 72 68 66 64 60 55 49 45 40 35 30 26 22 17 14 12 14 16 13 11
9 10 10 13 26 32 32 36 39 17 31 45 47 55 22 16 41 41 36 36 35 38 60 74 77 75 80 82 81 78 76 72 68 64 58 53 48 44 39 35 31 26 21 17 17 16 14 12 7
6 17 16 24 44 41 17 52 43 35 53 64 61 57 22 26 23 34 40 39 43 46 50 67 77 77 80 83 84 83 82 79 73 68 62 58 54 49 44 39 33 29 25 21 18 10 5 2 4
7 9 31 43 51 55 55 41 42 69 57 65 69 60 51 26 40 26 22 26 34 36 51 66 69 71 72 77 80 82 83 79 76 70 65 62 59 54 48 44 39 35 29 26 22 14 10 7 9
7 15 19 15 25 23 15 32 28 42 36 46 54 63 53 26 34 41 33 31 29 29 34 54 61 66 69 71 76 83 84 79 75 72 69 66 61 58 55 50 46 42 35 27 25 21 20 19 20
10 8 13 6 6 7 10 18 23 44 28 23 33 43 49 45 33 53 54 53 46 43 40 45 50 57 61 59 66 75 79 81 80 76 72 68 64 62 59 55 53 47 40 36 36 30 27 25 26
10 8 7 9 10 17 7 22 26 52 37 34 44 54 56 62 53 52 58 61 52 47 51 51 52 47 58 57 57 63 74 77 77 78 76 72 67 63 61 58 56 52 47 43 43 39 34 34 35
9 6 7 12 9 8 12 17 16 45 39 49 45 42 54 66 69 64 62 64 61 60 54 58 55 54 57 59 57 60 65 66 70 69 71 70 73 70 64 61 59 52 52 49 48 45 44 40 39
8 7 8 6 14 10 20 29 19 31 25 43 58 59 59 65 73 66 68 63 74 69 58 61 61 57 62 69 66 66 65 65 65 43 62 61 62 63 64 64 57 50 50 49 47 45 44 46 45
10 8 18 24 28 8 24 34 21 26 24 32 56 62 71 63 72 69 62 69 75 78 67 68 65 62 64 74 72 68 67 65 64 58 48 62 60 59 59 55 43 45 46 44 38 39 44 47 50
14 19 23 16 24 9 22 32 20 12 14 35 45 61 66 68 60 65 68 63 70 74 78 75 71 66 66 72 74 73 73 64 66 63 62 65 73 64 59 58 51 56 44 47 41 43 43 43 43
15 10 8 10 11 9 10 32 23 20 13 26 37 46 52 53 41 43 61 61 66 74 87 81 75 69 70 71 73 78 74 72 71 69 67 65 65 74 71 54 51 58 59 56 42 42 42 44 46
11 14 11 11 5 6 3 30 25 19 21 12 34 43 39 46 39 41 54 58 65 71 85 86 76 68 67 67 70 78 79 77 73 63 52 75 70 66 61 63 75 66 50 47 55 43 38 43 46
16 11 12 8 8 3 10 8 32 6 21 21 16 50 56 50 51 40 43 61 64 71 81 82 73 64 55 54 54 50 48 55 58 61 57 44 58 63 71 72 78 108 89 101 104 59 51 40 37
3 2 5 4 2 11 13 20 47 20 23 20 14 41 60 64 50 52 53 49 74 84 86 78 70 59 54 52 50 49 49 45 45 50 60 60 54 52 58 59 60 60 73 70 92 102 86 85 82
6 9 10 11 4 23 8 11 18 29 33 27 30 46 55 47 49 57 59 60 65 91 83 76 70 65 52 43 40 41 45 51 52 50 48 49 53 51 61 63 64 71 70 76 79 101 100 108 112
3 11 9 16 15 29 8 13 16 13 32 51 50 56 43 39 52 58 63 67 68 92 87 78 61 49 43 37 35 42 47 47 51 51 49 48 47 37 37 45 51 64 78 83 81 76 79 88 89
5 7 5 4 3 7 9 14 15 18 13 34 31 29 22 36 40 45 44 65 72 94 77 59 48 40 33 28 19 19 26 30 30 28 31 37 43 46 45 42 42 41 45 44 52 61 70 61 64
8 8 2 4 8 11 10 12 18 15 21 30 30 33 40 43 26 11 19 47 75 68 58 55 52 42 27 24 22 22 25 25 20 16 16 19 20 23 28 27 28 29 30 33 40 43 44 48 47
2 1 4 6 6 7 6 10 10 14 5 24 24 44 29 33 25 25 19 3 43 58 60 58 54 44 37 37 29 25 29 27 22 20 18 16 16 19 20 21 22 23 24 25 31 39 46 48 53
7 12 10 7 7 9 8 16 24 15 10 17 42 47 49 16 12 8 5 33 23 33 61 61 56 58 45 34 35 36 28 31 32 25 26 23 22 23 24 27 30 32 36 38 38 39 44 48 52
Wind_Direction_850mb
320 333 328 320 48 60 289 254 269 342 358 6 45 108 121 78 310 249 144 171 169 169 170 170 169 170 171 172 171 169 169 168 169 169 168 167 163 157 147 141 135 127 121 117 114 112 109 107 107
313 329 328 55 102 81 262 265 320 242 302 295 6 12 54 41 36 42 144 165 176 173 170 171 172 172 172 172 170 168 169 169 168 169 168 165 160 154 147 141 134 129 125 122 118 112 107 106 109
305 321 317 103 142 200 201 220 288 327 30 22 72 30 20 31 40 89 142 175 172 176 173 170 172 173 172 173 170 167 167 166 165 165 163 161 158 153 148 143 136 133 129 123 113 110 106 102 102
301 313 74 100 231 252 229 333 317 326 54 45 18 31 30 352 324 149 143 154 164 178 175 173 175 175 173 173 169 165 163 161 160 160 160 160 156 154 150 146 142 139 135 128 123 116 109 101 97
294 317 57 267 267 217 248 322 334 319 45 96 91 265 97 107 103 107 177 165 173 178 179 178 178 177 175 174 170 167 165 163 162 162 162 160 159 157 154 151 149 148 146 140 134 128 114 98 71
196 91 100 229 250 276 338 328 345 304 321 148 129 156 173 166 177 161 173 179 180 183 183 181 181 180 177 176 173 171 170 168 167 167 166 164 162 161 160 158 158 161 159 153 146 132 112 76 44
136 103 212 248 279 291 108 348 347 319 308 85 217 157 167 166 191 198 183 192 189 192 190 187 183 184 183 180 177 177 176 175 173 172 170 169 169 168 168 167 169 171 170 163 156 131 78 15 3
180 115 194 231 247 271 278 326 315 360 309 319 322 190 225 192 174 155 170 196 198 196 197 193 189 187 188 185 182 181 182 182 181 179 177 177 177 176 176 177 181 184 185 184 194 232 274 319 329
163 91 216 213 214 263 295 319 306 314 298 311 317 248 219 176 172 173 176 191 197 201 200 200 195 193 193 191 187 186 188 189 189 188 186 184 185 184 184 186 190 200 204 211 237 271 288 306 320
165 164 215 200 222 257 286 289 308 307 304 301 307 334 222 181 178 182 190 184 195 198 204 203 201 198 197 197 193 191 192 195 195 195 194 192 193 193 194 196 201 208 217 230 250 267 281 297 319
200 209 208 226 241 259 272 287 284 283 286 283 292 311 293 198 175 186 198 205 205 210 205 204 204 202 201 201 200 197 197 199 200 199 200 199 200 202 203 206 211 217 225 238 258 273 285 297 323
235 245 249 275 271 267 264 271 272 260 265 281 288 292 281 279 214 176 178 185 192 204 201 207 206 206 206 206 206 205 204 203 204 204 203 205 207 208 210 216 221 228 237 246 252 261 282 359 48
219 261 270 269 271 267 267 265 263 267 269 280 283 278 279 267 222 202 186 182 183 198 203 204 205 210 211 213 213 213 213 212 211 209 210 212 212 214 217 221 225 233 242 251 246 254 268 268 276
223 265 273 281 279 266 242 262 253 273 285 273 270 270 268 266 234 240 217 201 190 189 196 208 208 210 214 217 220 220 220 220 219 218 218 218 220 221 222 226 231 235 240 249 248 252 260 263 273
275 300 328 286 270 267 269 273 256 280 287 259 261 257 269 270 272 232 233 229 220 215 220 202 207 214 217 222 226 227 228 223 223 225 226 227 228 228 230 230 234 238 243 248 253 256 258 266 273
359 53 342 286 329 281 202 275 295 297 292 254 251 257 262 268 265 260 239 237 227 227 218 215 208 210 213 218 221 228 227 227 228 228 230 231 235 238 238 241 242 243 246 248 254 260 265 271 277
350 245 247 308 228 244 202 273 266 298 310 302 298 271 263 264 263 262 258 240 229 228 223 218 217 216 211 212 216 220 224 225 230 226 229 230 233 237 238 240 247 251 253 253 255 260 268 277 280
267 293 280 246 285 201 273 270 257 280 292 290 298 300 291 268 261 261 243 246 230 224 229 227 219 219 220 214 214 218 223 226 227 234 250 235 230 225 229 236 236 241 247 249 252 258 269 277 279
246 252 260 276 276 259 265 264 268 265 276 275 289 295 301 284 268 259 244 240 231 217 222 221 224 220 217 217 214 217 220 223 225 229 221 257 235 224 220 221 228 238 240 249 254 262 265 269 274
241 257 276 289 279 242 262 267 271 234 229 269 284 293 294 289 270 257 241 236 237 238 226 219 222 223 218 220 217 219 220 224 235 241 238 236 230 232 226 221 235 233 243 249 255 266 268 273 281
254 232 239 241 290 306 299 286 300 290 239 268 282 285 283 271 257 238 225 222 228 232 224 221 220 213 213 217 218 222 223 227 231 239 243 238 237 239 239 229 223 246 247 253 258 261 266 280 286
248 195 206 245 47 252 145 290 276 279 277 232 269 282 298 288 283 257 227 224 226 229 221 221 215 208 208 215 220 225 231 232 235 236 245 241 241 237 234 242 245 242 253 254 267 273 270 274 280
236 186 224 216 229 205 199 268 272 283 286 274 260 280 284 278 282 281 265 244 234 222 214 216 215 213 216 221 223 229 233 236 236 237 237 239 240 245 244 252 238 242 242 243 242 267 273 267 269
76 246 275 327 163 256 242 222 276 260 256 271 229 258 279 282 292 288 277 255 239 225 212 208 205 201 203 210 220 229 235 243 246 244 238 233 236 238 232 236 242 242 236 230 232 234 263 278 276
91 56 320 305 291 269 349 300 270 278 273 265 270 268 281 280 290 283 268 255 239 220 203 199 200 201 203 212 222 233 240 243 246 246 248 243 240 236 234 240 244 244 242 248 247 243 247 250 264
83 151 177 260 268 282 2 255 264 298 299 283 281 286 284 284 291 285 261 249 237 206 198 199 194 194 205 216 229 241 249 249 247 246 243 241 238 243 245 245 246 246 251 250 252 257 255 260 263
165 194 218 270 17 298 228 279 296 270 340 360 347 359 356 349 310 298 259 238 216 191 187 191 191 187 193 208 218 247 257 255 248 246 242 241 240 240 246 250 252 255 256 257 252 254 257 263 270
148 159 42 357 289 268 278 270 260 315 343 334 323 328 359 4 4 344 186 190 186 181 185 183 185 187 197 210 214 232 239 236 221 220 230 229 231 230 235 241 244 247 250 249 249 242 250 256 263
33 287 87 155 178 270 301 261 236 244 315 307 301 324 318 18 39 65 58 267 200 200 196 191 192 196 205 210 211 216 232 226 236 237 228 225 224 221 223 234 247 256 259 260 255 254 258 266 269
165 197 156 128 266 243 255 264 266 296 322 327 305 300 293 280 356 94 265 352 352 252 214 212 205 208 212 221 218 214 222 217 228 231 236 239 243 241 244 258 269 276 279 280 280 273 269 272 274